Dillon, CO

12:52 PM MST on February 24, 2017 (GMT -0700)
Copper Mountain

Weather History for KCCU - August, 2013

Change the Weather History Date:

Wednesday, August 21, 2013

  Actual Average Record
Temperature  
Mean Temperature 60 °F -  
Max Temperature 68 °F - 69 °F (2007)
Min Temperature 53 °F - 35 °F (2002)
Degree Days  
Heating Degree Days 4    
Month to date heating degree days  
Cooling Degree Days 0    
Month to date cooling degree days  
Growing Degree Days 10 (Base 50)    
Moisture  
Dew Point 35 °F    
Average Humidity 43    
Maximum Humidity 54    
Minimum Humidity 24    
Precipitation  
Precipitation 0.00 in - 0.24 in (2002)
Sea Level Pressure  
Sea Level Pressure 30.69 in    
Wind  
Wind Speed 13 mph (WSW)    
Max Wind Speed 29 mph    
Max Gust Speed 32 mph    
Visibility 10 miles    
Events Rain , Thunderstorm    
T = Trace of Precipitation, MM = Missing Value Source: NWS Daily Summary

Daily Weather History Graph

Daily Weather History Graph

Search for Another Location

Airport or City:

Trip Planner

Search our weather history database for the weather conditions in past years. The results will help you decide how hot, cold, wet, or windy it might be!

Date:

Astronomy

Aug. 21, 2013 Rise Set
Actual Time 6:23 AM MDT 7:51 PM MDT
Civil Twilight 5:54 AM MDT 8:19 PM MDT
Nautical Twilight 5:20 AM MDT 8:53 PM MDT
Astronomical Twilight 4:44 AM MDT 9:29 PM MDT
Moon 8:02 PM MDT (8/21) 7:05 AM MDT (8/21)
Length of Visible Light 14h 24m
Length of Day
13h 28m
Full, 99% of the Moon is Illuminated
Aug 21
Full
Aug 28
Last Quarter
Sep 5
New
Sep 12
First Quarter
Sep 19
Full

Hourly Weather History & Observations

Time (MDT) Temp. Dew Point Humidity Pressure Visibility Wind Dir Wind Speed Gust Speed Precip Events Conditions
12:14 AM 53.6 °F 37.4 °F 54% 30.67 in 10.0 mi West 8.1 mph - N/A   Overcast
12:34 AM 53.6 °F 35.6 °F 51% 30.67 in 10.0 mi West 9.2 mph - N/A   Overcast
12:54 AM 53.6 °F 35.6 °F 51% 30.67 in 10.0 mi SSW 6.9 mph - N/A   Overcast
1:14 AM 53.6 °F 35.6 °F 51% 30.67 in 10.0 mi South 6.9 mph - N/A   Scattered Clouds
1:34 AM 53.6 °F 35.6 °F 51% 30.66 in 10.0 mi South 5.8 mph - N/A   Mostly Cloudy
1:54 AM 53.6 °F 33.8 °F 47% 30.65 in 10.0 mi South 5.8 mph - N/A   Overcast
2:14 AM 55.4 °F 33.8 °F 44% 30.65 in 10.0 mi South 13.8 mph - N/A   Overcast
2:34 AM 55.4 °F 33.8 °F 44% 30.65 in 10.0 mi South 13.8 mph - N/A   Overcast
2:54 AM 55.4 °F 33.8 °F 44% 30.65 in 10.0 mi South 10.4 mph - N/A   Overcast
3:14 AM 53.6 °F 33.8 °F 47% 30.65 in 10.0 mi West 6.9 mph - N/A   Overcast
3:34 AM 55.4 °F 33.8 °F 44% 30.65 in 10.0 mi SSW 8.1 mph - N/A   Overcast
3:54 AM 55.4 °F 33.8 °F 44% 30.65 in 10.0 mi SW 10.4 mph 16.1 mph N/A   Overcast
4:14 AM 53.6 °F 33.8 °F 47% 30.66 in 10.0 mi SSW 8.1 mph - N/A   Scattered Clouds
4:34 AM 53.6 °F 33.8 °F 47% 30.66 in 10.0 mi SW 5.8 mph - N/A   Clear
4:54 AM 53.6 °F 33.8 °F 47% 30.66 in 10.0 mi WSW 6.9 mph - N/A   Clear
5:14 AM 53.6 °F 35.6 °F 51% 30.66 in 10.0 mi WSW 8.1 mph - N/A   Clear
5:34 AM 53.6 °F 35.6 °F 51% 30.67 in 10.0 mi SW 4.6 mph - N/A   Clear
5:54 AM 53.6 °F 35.6 °F 51% 30.67 in 10.0 mi WSW 4.6 mph - N/A   Clear
6:14 AM 53.6 °F 35.6 °F 51% 30.67 in 10.0 mi West 12.7 mph - N/A   Clear
6:34 AM 53.6 °F 35.6 °F 51% 30.67 in 10.0 mi West 11.5 mph - N/A   Clear
6:54 AM 53.6 °F 35.6 °F 51% 30.67 in 10.0 mi West 12.7 mph - N/A   Clear
7:14 AM 53.6 °F 35.6 °F 51% 30.68 in 10.0 mi West 12.7 mph - N/A   Clear
7:34 AM 53.6 °F 37.4 °F 54% 30.69 in 10.0 mi West 12.7 mph - N/A   Clear
7:54 AM 53.6 °F 37.4 °F 54% 30.69 in 10.0 mi West 10.4 mph - N/A   Clear
8:14 AM 53.6 °F 37.4 °F 54% 30.69 in 10.0 mi West 10.4 mph - N/A   Clear
8:34 AM 53.6 °F 35.6 °F 51% 30.69 in 10.0 mi West 10.4 mph - N/A   Clear
8:54 AM 53.6 °F 35.6 °F 51% 30.69 in 10.0 mi West 11.5 mph - N/A   Clear
9:14 AM 55.4 °F 37.4 °F 51% 30.69 in 10.0 mi West 10.4 mph - N/A   Clear
9:34 AM 59.0 °F 39.2 °F 48% 30.70 in 10.0 mi West 6.9 mph - N/A   Clear
9:54 AM 59.0 °F 37.4 °F 45% 30.71 in 10.0 mi West 11.5 mph - N/A   Clear
10:14 AM 60.8 °F 37.4 °F 42% 30.71 in 10.0 mi West 5.8 mph - N/A   Clear
10:34 AM 60.8 °F 35.6 °F 39% 30.71 in 10.0 mi West 9.2 mph 17.3 mph N/A   Clear
10:54 AM 60.8 °F 33.8 °F 36% 30.71 in 10.0 mi West 18.4 mph 28.8 mph N/A   Clear
11:14 AM 60.8 °F 33.8 °F 36% 30.71 in 10.0 mi West 18.4 mph 29.9 mph N/A   Clear
11:34 AM 62.6 °F 37.4 °F 39% 30.71 in 10.0 mi WNW 16.1 mph 21.9 mph N/A   Scattered Clouds
11:54 AM 62.6 °F 35.6 °F 37% 30.71 in 10.0 mi West 19.6 mph 25.3 mph N/A   Mostly Cloudy
12:14 PM 60.8 °F 35.6 °F 39% 30.71 in 10.0 mi West 17.3 mph 29.9 mph N/A   Overcast
12:34 PM 60.8 °F 35.6 °F 39% 30.71 in 10.0 mi West 20.7 mph 31.1 mph N/A   Scattered Clouds
12:54 PM 64.4 °F 35.6 °F 34% 30.70 in 10.0 mi West 21.9 mph 25.3 mph N/A   Mostly Cloudy
1:14 PM 64.4 °F 33.8 °F 32% 30.70 in 10.0 mi West 19.6 mph - N/A   Scattered Clouds
1:34 PM 62.6 °F 33.8 °F 34% 30.70 in 10.0 mi WNW 20.7 mph 27.6 mph N/A   Scattered Clouds
1:54 PM 64.4 °F 33.8 °F 32% 30.69 in 10.0 mi West 17.3 mph 24.2 mph N/A   Mostly Cloudy
2:14 PM 64.4 °F 33.8 °F 32% 30.69 in 10.0 mi West 20.7 mph 29.9 mph N/A   Mostly Cloudy
2:34 PM 60.8 °F 33.8 °F 36% 30.69 in 10.0 mi West 18.4 mph 27.6 mph N/A   Overcast
2:54 PM 64.4 °F 32.0 °F 30% 30.69 in 10.0 mi West 17.3 mph 21.9 mph N/A   Mostly Cloudy
3:14 PM 68.0 °F 30.2 °F 24% 30.68 in 10.0 mi NW 8.1 mph 19.6 mph N/A   Scattered Clouds
3:34 PM 64.4 °F 26.6 °F 24% 30.68 in 10.0 mi West 10.4 mph 21.9 mph N/A   Mostly Cloudy
3:54 PM 64.4 °F 32.0 °F 30% 30.67 in 10.0 mi West 20.7 mph 27.6 mph N/A   Mostly Cloudy
4:14 PM 66.2 °F 28.4 °F 24% 30.67 in 10.0 mi WNW 19.6 mph 26.5 mph N/A Thunderstorm Thunderstorm
4:34 PM 68.0 °F 30.2 °F 24% 30.67 in 10.0 mi West 16.1 mph 24.2 mph N/A   Mostly Cloudy
4:54 PM 64.4 °F 32.0 °F 30% 30.67 in 10.0 mi West 24.2 mph 29.9 mph N/A   Mostly Cloudy
5:14 PM 64.4 °F 32.0 °F 30% 30.67 in 10.0 mi West 18.4 mph 25.3 mph N/A Rain Light Rain
5:34 PM 62.6 °F 32.0 °F 32% 30.67 in 10.0 mi West 16.1 mph - N/A   Overcast
5:54 PM 60.8 °F 32.0 °F 34% 30.67 in 10.0 mi WNW 18.4 mph 24.2 mph N/A   Mostly Cloudy
6:14 PM 60.8 °F 32.0 °F 34% 30.68 in 10.0 mi SW 10.4 mph 18.4 mph N/A   Mostly Cloudy
6:34 PM 59.0 °F 37.4 °F 45% 30.68 in 10.0 mi South 19.6 mph - N/A   Overcast
6:54 PM 59.0 °F 35.6 °F 42% 30.68 in 10.0 mi South 21.9 mph 25.3 mph N/A   Overcast
7:14 PM 57.2 °F 37.4 °F 48% 30.68 in 10.0 mi South 28.8 mph 32.2 mph N/A   Mostly Cloudy
7:34 PM 53.6 °F 35.6 °F 51% 30.68 in 10.0 mi South 28.8 mph - N/A   Scattered Clouds
7:54 PM 53.6 °F 37.4 °F 54% 30.69 in 10.0 mi South 24.2 mph - N/A Thunderstorm Clear
8:14 PM 53.6 °F 37.4 °F 54% 30.69 in 10.0 mi South 24.2 mph 29.9 mph N/A   Mostly Cloudy
8:34 PM 53.6 °F 37.4 °F 54% 30.71 in 10.0 mi South 27.6 mph - N/A   Overcast
8:54 PM 53.6 °F 35.6 °F 51% 30.71 in 10.0 mi South 28.8 mph - N/A   Overcast
9:14 PM 53.6 °F 35.6 °F 51% 30.71 in 10.0 mi South 25.3 mph - N/A   Mostly Cloudy
9:34 PM 53.6 °F 35.6 °F 51% 30.72 in 10.0 mi South 24.2 mph - N/A   Scattered Clouds
9:54 PM 53.6 °F 35.6 °F 51% 30.71 in 10.0 mi South 23.0 mph - N/A   Clear
10:14 PM 53.6 °F 33.8 °F 47% 30.72 in 10.0 mi South 21.9 mph - N/A   Clear
10:34 PM 55.4 °F 33.8 °F 44% 30.72 in 10.0 mi South 20.7 mph - N/A   Clear
10:54 PM 55.4 °F 33.8 °F 44% 30.72 in 10.0 mi South 21.9 mph - N/A   Clear
11:14 PM 55.4 °F 33.8 °F 44% 30.72 in 10.0 mi South 18.4 mph - N/A   Clear
11:34 PM 55.4 °F 33.8 °F 44% 30.72 in 10.0 mi South 18.4 mph - N/A   Clear
11:54 PM 55.4 °F 33.8 °F 44% 30.72 in 10.0 mi South 19.6 mph - N/A   Clear